sat.trackr.live / text

‹ back to catalog

STARLINK-36837

NORAD 67858 · 2026-034J

PAYLOAD ACTIVE UNKNOWN

§ Identity

Operator
Country
US
Launch date
2026-02-20
Launch site
AFETR
Launch vehicle
Mass (kg)
RCS (m²)

Purposes: comms

External: N2YO · Heavens-Above · Gunter

§ Orbital elements

Epoch: 2026-09-19T21:20:16.666656Z

Period
93.85 min
Inclination
53.1579°
Eccentricity
0.0001166
Mean motion
15.34411331 rev/d
Perigee alt
461.9 km
Apogee alt
463.5 km
Semi-major
6,840.8 km
B*
6.4227e-4
RAAN
16.8890°
Arg perigee
82.1520°
Mean anomaly
277.9615°
Rev number
3,384

§ Raw data

STARLINK-368371 67858U 26034J   26262.88908179  .00021394  00000+0  64227-3 0  99992 67858  53.1579  16.8890 0001166  82.1520 277.9615 15.34411331 33841

JSON: /api/v1/satellites/67858 · /tle

For live sub-satellite position, see the globe view (requires WebGL).

§ Visibility from observer

Set your observer location to see the next 7 days of passes ≥ 10°. The values pass through the URL so the page stays shareable.

No JS? Fill the form by hand. The geolocation button needs JavaScript.